This is the latest recevied weather packets stored in our database for station/object KD4UFD. If no packets are shown the sender has not sent any weather packets the latest 10 day(s).
| Time | Temp. | Humidity | Pressure | Rain* | Wind** | Luminosity | Snow |
|---|---|---|---|---|---|---|---|
| 1777999063 | 22.78° C | 57% | 1014.8 hPa | 0 mm | - | 348 W/m² | - |
| 1777998762 | 22.78° C | 56% | 1015 hPa | 0 mm | - | 420 W/m² | - |
| 1777998458 | 22.22° C | 56% | 1014.7 hPa | 0 mm | - | 400 W/m² | - |
| 1777998156 | 22.78° C | 54% | 1014.8 hPa | 0 mm | - | 393 W/m² | - |
| 1777997852 | 22.78° C | 58% | 1014.7 hPa | 0 mm | - | 456 W/m² | - |
| 1777997550 | 22.78° C | 57% | 1014.8 hPa | 0 mm | - | 488 W/m² | - |
| 1777997247 | 23.33° C | 57% | 1014.8 hPa | 0 mm | - | 492 W/m² | - |
| 1777996945 | 23.33° C | 55% | 1014.8 hPa | 0 mm | - | 507 W/m² | - |
| 1777996641 | 22.78° C | 56% | 1014.8 hPa | 0 mm | - | 543 W/m² | - |
| 1777996337 | 22.22° C | 58% | 1014.6 hPa | 0 mm | - | 750 W/m² | - |
| 1777996034 | 21.67° C | 59% | 1014.9 hPa | 0 mm | - | 506 W/m² | - |
| 1777995730 | 22.22° C | 60% | 1014.6 hPa | 0 mm | - | 392 W/m² | - |
| 1777995427 | 21.67° C | 61% | 1014.7 hPa | 0 mm | - | 434 W/m² | - |
| 1777995124 | 22.22° C | 58% | 1014.8 hPa | 0 mm | - | 467 W/m² | - |
| 1777994821 | 21.67° C | 60% | 1014.8 hPa | 0 mm | - | 473 W/m² | - |
| 1777994517 | 21.67° C | 60% | 1014.9 hPa | 0 mm | - | 484 W/m² | - |
| 1777994212 | 21.11° C | 60% | 1014.7 hPa | 0 mm | - | 454 W/m² | - |
| 1777993910 | 21.11° C | 59% | 1014.5 hPa | 0 mm | - | 439 W/m² | - |
| 1777993605 | 21.67° C | 59% | 1014.5 hPa | 0 mm | - | 379 W/m² | - |
| 1777993303 | 21.67° C | 58% | 1014.5 hPa | 0 mm | - | 500 W/m² | - |
| 1777992998 | 21.11° C | 57% | 1014.5 hPa | 0 mm | - | 445 W/m² | - |
| 1777992697 | 21.11° C | 58% | 1014.7 hPa | 0 mm | - | 549 W/m² | - |
| 1777992394 | 21.11° C | 57% | 1014.6 hPa | 0 mm | - | 586 W/m² | - |
| 1777992092 | 20° C | 59% | 1014.6 hPa | 0 mm | - | 673 W/m² | - |
| 1777991789 | 19.44° C | 60% | 1014.5 hPa | 0 mm | - | 424 W/m² | - |
* Rain latest hour (hover to see other rain measurements)
** Current wind speed in m/s (hover to see current wind gust speed)